Weather History for KAQP - November, 2012

Change the Weather History Date:

Saturday, November 10, 2012

  Actual Average Record
Temperature  
Mean Temperature 48 °F -  
Max Temperature 62 °F 40 °F 62 °F (2012)
Min Temperature 35 °F 23 °F 15 °F (1997)
Degree Days  
Heating Degree Days 16    
Moisture  
Dew Point 45 °F    
Average Humidity 86    
Maximum Humidity 94    
Minimum Humidity 68    
Precipitation  
Precipitation 0.20 in - - ()
Sea Level Pressure  
Sea Level Pressure 29.56 in    
Wind  
Wind Speed 14 mph (SE)    
Max Wind Speed 22 mph    
Max Gust Speed 30 mph    
Visibility 5 miles    
Events Rain , Thunderstorm    
Averages and records for this station are not official NWS values.
T = Trace of Precipitation, MM = Missing Value Source: NWS Daily Summary

Daily Weather History Graph

Daily Weather History Graph

Search for Another Location

Airport or City:

Trip Planner

Search our weather history database for the weather conditions in past years. The results will help you decide how hot, cold, wet, or windy it might be!

Date:

Astronomy

Nov. 10, 2012 Rise Set
Actual Time 7:16 AM CST 4:59 PM CST
Civil Twilight 6:44 AM CST 5:30 PM CST
Nautical Twilight 6:09 AM CST 6:06 PM CST
Astronomical Twilight 5:34 AM CST 6:40 PM CST
Moon 3:13 AM CST (11/10) 2:54 PM CST (11/10)
Length of Visible Light 10h 46m
Length of Day
9h 43m
Waning Crescent, 14% of the Moon is Illuminated
Nov 10
Waning Crescent
Nov 13
New
Nov 20
First Quarter
Nov 28
Full
Dec 6
Last Quarter

Hourly Weather History & Observations

Time (CST) Temp. Windchill Dew Point Humidity Pressure Visibility Wind Dir Wind Speed Gust Speed Precip Events Conditions
12:13 AM 44.6 °F 36.6 °F 37.4 °F 76% 29.80 in 10.0 mi East 19.6 mph 25.3 mph N/A   Mostly Cloudy
12:33 AM 44.6 °F 37.4 °F 37.4 °F 76% 29.79 in 10.0 mi ESE 16.1 mph - N/A   Mostly Cloudy
12:53 AM 44.6 °F 37.4 °F 37.4 °F 76% 29.78 in 10.0 mi East 16.1 mph - N/A   Mostly Cloudy
1:13 AM 44.6 °F 36.9 °F 37.4 °F 76% 29.77 in 10.0 mi ESE 18.4 mph 26.5 mph N/A   Overcast
1:33 AM 44.6 °F 37.4 °F 37.4 °F 76% 29.75 in 10.0 mi East 16.1 mph 20.7 mph N/A   Mostly Cloudy
1:53 AM 44.6 °F 36.6 °F 39.2 °F 81% 29.74 in 7.0 mi East 19.6 mph 24.2 mph N/A   Overcast
2:14 AM 44.6 °F 37.4 °F 39.2 °F 81% 29.74 in 7.0 mi East 16.1 mph 24.2 mph N/A   Overcast
2:33 AM 44.6 °F 37.8 °F 39.2 °F 81% 29.73 in 7.0 mi East 15.0 mph 20.7 mph N/A   Overcast
2:53 AM 44.6 °F 38.1 °F 39.2 °F 81% 29.72 in 7.0 mi East 13.8 mph 18.4 mph N/A   Overcast
3:13 AM 44.6 °F 38.1 °F 39.2 °F 81% 29.71 in 7.0 mi East 13.8 mph 19.6 mph N/A   Overcast
3:33 AM 44.6 °F 37.8 °F 39.2 °F 81% 29.70 in 5.0 mi East 15.0 mph 19.6 mph N/A Rain Light Rain
3:53 AM 44.6 °F 38.1 °F 41.0 °F 87% 29.69 in 4.0 mi ESE 13.8 mph - N/A   Overcast
4:13 AM 44.6 °F 37.4 °F 41.0 °F 87% 29.67 in 3.0 mi ESE 16.1 mph 21.9 mph N/A   Overcast
4:33 AM 44.6 °F 37.2 °F 41.0 °F 87% 29.66 in 3.0 mi ESE 17.3 mph - N/A   Overcast
4:53 AM 44.6 °F 38.1 °F 42.8 °F 93% 29.66 in 3.0 mi ESE 13.8 mph 19.6 mph N/A   Overcast
5:13 AM 46.4 °F 40.1 °F 42.8 °F 87% 29.66 in 2.5 mi East 15.0 mph - N/A   Overcast
5:53 AM 46.4 °F 40.4 °F 42.8 °F 87% 29.65 in 1.8 mi East 13.8 mph 18.4 mph N/A   Overcast
6:14 AM 44.6 °F 37.8 °F 42.8 °F 93% 29.64 in 1.2 mi East 15.0 mph - N/A Rain Light Rain
6:34 AM 46.4 °F 40.1 °F 44.6 °F 93% 29.64 in 1.2 mi East 15.0 mph 18.4 mph N/A   Overcast
6:53 AM 46.4 °F 40.4 °F 44.6 °F 93% 29.64 in 1.5 mi East 13.8 mph - N/A   Overcast
7:13 AM 46.4 °F 39.5 °F 44.6 °F 93% 29.62 in 1.5 mi ESE 17.3 mph - N/A   Overcast
7:33 AM 46.4 °F 39.8 °F 44.6 °F 93% 29.61 in 1.5 mi East 16.1 mph - N/A   Overcast
7:53 AM 46.4 °F 40.1 °F 44.6 °F 93% 29.60 in 1.5 mi East 15.0 mph 21.9 mph N/A   Overcast
8:13 AM 46.4 °F 39.8 °F 44.6 °F 93% 29.59 in 1.5 mi ESE 16.1 mph 21.9 mph N/A   Overcast
8:34 AM 46.4 °F 40.4 °F 44.6 °F 93% 29.58 in 1.8 mi East 13.8 mph - N/A   Overcast
8:53 AM 46.4 °F 40.1 °F 44.6 °F 93% 29.56 in 1.2 mi East 15.0 mph 21.9 mph N/A   Overcast
9:14 AM 48.2 °F - 46.4 °F 93% 29.57 in 1.2 mi ESE 11.5 mph - N/A   Overcast
9:33 AM 48.2 °F - 46.4 °F 93% 29.55 in 1.2 mi ESE 12.7 mph 19.6 mph N/A   Overcast
9:53 AM 48.2 °F - 46.4 °F 93% 29.54 in 1.2 mi ESE 12.7 mph 19.6 mph N/A   Overcast
10:13 AM 48.2 °F - 46.4 °F 93% 29.54 in 1.2 mi ESE 12.7 mph 17.3 mph N/A   Overcast
10:33 AM 48.2 °F - 46.4 °F 93% 29.52 in 1.2 mi ESE 11.5 mph - N/A   Overcast
10:54 AM 50.0 °F - 46.4 °F 87% 29.52 in 1.5 mi ESE 11.5 mph 17.3 mph N/A   Overcast
11:13 AM 51.8 °F - 48.2 °F 88% 29.52 in 1.8 mi ESE 10.4 mph - N/A   Overcast
11:33 AM 51.8 °F - 48.2 °F 88% 29.51 in 1.8 mi ESE 9.2 mph - N/A   Overcast
11:53 AM 51.8 °F - 48.2 °F 88% 29.49 in 2.0 mi ESE 10.4 mph - N/A   Overcast
12:13 PM 53.6 °F - 48.2 °F 82% 29.49 in 2.0 mi ESE 6.9 mph - N/A   Overcast
12:34 PM 53.6 °F - 50.0 °F 88% 29.48 in 2.5 mi ESE 8.1 mph - N/A   Overcast
12:54 PM 55.4 °F - 50.0 °F 82% 29.47 in 3.0 mi ESE 9.2 mph - N/A   Haze
1:13 PM 55.4 °F - 51.8 °F 88% 29.45 in 3.0 mi ESE 11.5 mph - N/A   Haze
1:33 PM 57.2 °F - 51.8 °F 82% 29.44 in 4.0 mi ESE 9.2 mph - N/A   Haze
1:54 PM 57.2 °F - 51.8 °F 82% 29.45 in 5.0 mi SE 6.9 mph - N/A   Haze
2:14 PM 60.8 °F - 53.6 °F 77% 29.44 in 7.0 mi SE 8.1 mph - N/A   Overcast
2:34 PM 60.8 °F - 53.6 °F 77% 29.43 in 7.0 mi SE 4.6 mph - N/A   Overcast
2:53 PM 60.8 °F - 53.6 °F 77% 29.43 in 7.0 mi SSW 5.8 mph - N/A   Overcast
3:13 PM 62.6 °F - 51.8 °F 68% 29.42 in 10.0 mi SSW 3.5 mph - N/A   Overcast
3:34 PM 60.8 °F - 53.6 °F 77% 29.44 in 10.0 mi WSW 8.1 mph - N/A   Overcast
3:53 PM 59.0 °F - 51.8 °F 77% 29.44 in 7.0 mi WSW 8.1 mph - N/A   Overcast
4:14 PM 57.2 °F - 51.8 °F 82% 29.46 in 4.0 mi SW 9.2 mph - N/A   Haze
4:33 PM 55.4 °F - 50.0 °F 82% 29.47 in 3.0 mi SW 9.2 mph - N/A   Haze
4:53 PM 55.4 °F - 50.0 °F 82% 29.48 in 5.0 mi SSW 10.4 mph 16.1 mph N/A   Haze
5:13 PM 55.4 °F - 48.2 °F 77% 29.48 in 10.0 mi SSW 11.5 mph - N/A   Overcast
5:33 PM 53.6 °F - 48.2 °F 82% 29.47 in 10.0 mi SW 6.9 mph - N/A   Scattered Clouds
5:54 PM 51.8 °F - 46.4 °F 82% 29.45 in 10.0 mi SW 4.6 mph - N/A   Clear
6:13 PM 51.8 °F - 46.4 °F 82% 29.44 in 10.0 mi WSW 4.6 mph - N/A   Scattered Clouds
6:34 PM 51.8 °F - 48.2 °F 88% 29.45 in 10.0 mi SW 5.8 mph - N/A   Mostly Cloudy
6:53 PM 51.8 °F - 48.2 °F 88% 29.45 in 7.0 mi West 6.9 mph - N/A Thunderstorm Mostly Cloudy
7:13 PM 51.8 °F - 48.2 °F 88% 29.45 in 3.0 mi WSW 3.5 mph - 0.01 in Rain , Thunderstorm Light Thunderstorms and Rain
7:34 PM 51.8 °F - 48.2 °F 88% 29.50 in 2.5 mi WSW 13.8 mph 25.3 mph 0.06 in Rain , Thunderstorm Heavy Thunderstorms and Rain
7:53 PM 50.0 °F - 46.4 °F 87% 29.43 in 1.5 mi Calm Calm - 0.16 in Rain , Thunderstorm Heavy Thunderstorms and Rain
8:13 PM 50.0 °F - 48.2 °F 94% 29.48 in 2.0 mi SW 9.2 mph - 0.03 in Rain Light Rain
8:33 PM 48.2 °F - 46.4 °F 93% 29.47 in 2.5 mi West 9.2 mph - 0.03 in Rain Light Rain
8:53 PM 48.2 °F - 46.4 °F 93% 29.49 in 4.0 mi West 13.8 mph - 0.03 in   Overcast
9:14 PM 44.6 °F 37.8 °F 42.8 °F 93% 29.50 in 3.0 mi West 15.0 mph 21.9 mph N/A Rain Light Rain
9:33 PM 42.8 °F 35.4 °F 41.0 °F 93% 29.51 in 4.0 mi WNW 15.0 mph - 0.01 in   Overcast
10:13 PM 41.0 °F 31.6 °F 39.2 °F 93% 29.51 in 7.0 mi WNW 20.7 mph 26.5 mph N/A   Overcast
10:33 PM 39.2 °F 29.0 °F 37.4 °F 93% 29.53 in 10.0 mi WNW 21.9 mph 29.9 mph N/A   Overcast
10:53 PM 37.4 °F 26.6 °F 35.6 °F 93% 29.55 in 7.0 mi WNW 21.9 mph 28.8 mph N/A   Overcast
11:13 PM 37.4 °F 26.9 °F 35.6 °F 93% 29.57 in 10.0 mi NW 20.7 mph 24.2 mph N/A   Overcast
11:34 PM 35.6 °F 25.9 °F 33.8 °F 93% 29.57 in 10.0 mi WNW 16.1 mph 25.3 mph N/A   Overcast
11:54 PM 35.6 °F 25.2 °F 33.8 °F 93% 29.58 in 10.0 mi NW 18.4 mph 25.3 mph N/A   Overcast